This demonstration page uses our WeatherBlox Daily Observations layout. Learn more.

Left ArrowRight Arrow

36.17497, -115.13722

Hourly Observations for January 11, 2016

Temp ( °F °C ) Dew Point ( °F °C ) Humidity (%) Winds ( mph kmh ) Pressure ( in mb ) Visibility ( mi km ) Precip ( " mm )
12:53 am 00:53 Clear 45 7.2 25 -3.9 46 46 NNW 6 9 30.35 1028 10 16.0934 0 0
1:53 am 01:53 Clear 41 5 25 -3.9 53 53 N 7 11 30.35 1028 10 16.0934 0 0
2:53 am 02:53 Clear 39 3.9 25 -3.9 57 57 NNW 6 9 30.37 1029 10 16.0934 0 0
3:53 am 03:53 Clear 40 4.4 23 -5 51 51 NW 9 15 30.37 1029 10 16.0934 0 0
4:53 am 04:53 Clear 37 2.8 25 -3.9 62 62 WNW 7 11 30.39 1029 10 16.0934 0 0
5:53 am 05:53 Clear 35 1.7 24 -4.4 64 64 SE 3 6 30.41 1030 10 16.0934 0 0
6:53 am 06:53 Sunny 36 2.2 23 -5 59 59 NNW 5 7 30.42 1030 10 16.0934 0 0
7:53 am 07:53 Sunny 37 2.8 24 -4.4 59 59 SSW 3 6 30.43 1031 10 16.0934 0 0
8:53 am 08:53 Sunny 42 5.6 23 -5 47 47 N 6 9 30.45 1031 10 16.0934 0 0
9:53 am 09:53 Sunny 45 7.2 22 -5.6 40 40 ENE 5 7 30.45 1031 10 16.0934 0 0
10:53 am 10:53 Sunny 46 7.8 22 -5.6 38 38 ESE 6 9 30.44 1031 10 16.0934 0 0
11:53 am 11:53 Sunny 47 8.3 21 -6.1 36 36 VRB 6 9 30.42 1030 10 16.0934 0 0
12:53 pm 12:53 Sunny 48 8.9 20 -6.7 33 33 SE 7 11 30.38 1029 10 16.0934 0 0
1:53 pm 13:53 Sunny 50 10 18 -7.8 28 28 Calm 30.37 1028 10 16.0934 0 0
2:53 pm 14:53 Sunny 51 10.6 19 -7.2 28 28 SE 6 9 30.37 1028 10 16.0934 0 0
3:53 pm 15:53 Sunny 50 10 19 -7.2 29 29 SE 7 11 30.37 1028 10 16.0934 0 0
4:53 pm 16:53 Clear 48 8.9 21 -6.1 34 34 SE 5 7 30.38 1029 10 16.0934 0 0
5:53 pm 17:53 Clear 45 7.2 22 -5.6 40 40 E 5 7 30.41 1030 10 16.0934 0 0
6:53 pm 18:53 Clear 45 7.2 21 -6.1 39 39 Calm 30.41 1030 10 16.0934 0 0
7:53 pm 19:53 Clear 41 5 23 -5 49 49 WNW 6 9 30.42 1030 10 16.0934 0 0
8:53 pm 20:53 Clear 38 3.3 25 -3.9 60 60 NW 6 9 30.42 1030 10 16.0934 0 0
9:53 pm 21:53 Clear 38 3.3 24 -4.4 57 57 NW 8 13 30.42 1030 10 16.0934 0 0
10:53 pm 22:53 Clear 38 3.3 23 -5 55 55 WNW 5 7 30.42 1030 10 16.0934 0 0
11:53 pm 23:53 Clear 38 3.3 22 -5.6 52 52 WNW 6 9 30.41 1030 10 16.0934 0 0

Powered by AerisWeather